Terminal Aerodrome Forecast
Issued by NWS La Crosse, WI

Home | Current Version | Previous Version | Text Only | Print | Product List | Glossary On
Versions: 1 2 3 4 5 6 7 8 9 10 11 12 13 14 15 16 17 18 19 20 21 22 23 24 25 26 27 28 29 30 31 32 33 34 35 36 37 38 39 40 41 42 43 44 45
000
FTUS43 KARX 301040 AAC
TAFLSE
TAF AMD
KLSE 301040Z 3011/3106 VRB04KT P6SM VCSH SCT005 BKN040
      TEMPO 3011/3014 3SM -SHRA BR BKN005
     FM301600 30006KT 4SM BR BKN022
     FM302000 31007KT P6SM BKN035=

USA.gov is the U.S. government's official web portal to all federal, state and local government web resources and services.